Location: Newark
(53.4333°N, 36.0000°E)
Time: 21:15:17
(UTC+00:00)

ISS - Pass Details

Date: 02 October 2019
Orbit: 411 x 421 km, 51.6° (Epoch: 21 October)

Event Time Altitude Azimuth Distance (km) Brightness Sun altitude
Rises 17:46:34 0° 279° (W) 2,348 1.3 -23.3°
Reaches altitude 10° 17:48:55 10° 265° (W) 1,483 -0.2 -23.6°
Enters shadow 17:50:39 20° 237° (WSW) 1,007 -1.6 -23.8°
